Eastover, SC

11:33 PM EST on December 06, 2019 (GMT -0500)
McEntire Angs

Weather History for KMMT - November, 2019

Change the Weather History Date:

Thursday, November 14, 2019

  Actual Average Record
Temperature  
Mean Temperature 36 °F -  
Max Temperature 42 °F 63 °F 80 °F (1999)
Min Temperature 31 °F 42 °F 21 °F (2013)
Degree Days  
Heating Degree Days 28    
Moisture  
Dew Point 32 °F    
Average Humidity 79    
Maximum Humidity 100    
Minimum Humidity 50    
Precipitation  
Precipitation 0.02 in - - ()
Sea Level Pressure  
Sea Level Pressure 30.32 in    
Wind  
Wind Speed 4 mph ()    
Max Wind Speed 12 mph    
Max Gust Speed -    
Visibility 7.3 miles    
Events Rain    
Averages and records for this station are not official NWS values.
T = Trace of Precipitation, MM = Missing Value Source: Averaged Metar Reports

Daily Weather History Graph

Daily Weather History Graph

Search for Another Location

Airport or City:

Astronomy

Nov. 14, 2019 Rise Set
Actual Time 6:54 AM EST 5:20 PM EST
Civil Twilight 6:27 AM EST 5:46 PM EST
Nautical Twilight 5:57 AM EST 6:17 PM EST
Astronomical Twilight 5:28 AM EST 6:46 PM EST
Moon 7:08 PM EST (11/14) 8:45 AM EST (11/14)
Length of Visible Light 11h 19m
Length of Day
10h 26m
Waning Gibbous, 95% of the Moon is Illuminated
Nov 14
Waning Gibbous
Nov 19
Last Quarter
Nov 26
New
Dec 4
First Quarter
Dec 12
Full

Hourly Weather History & Observations

Time (EST) Temp. Windchill Dew Point Humidity Pressure Visibility Wind Dir Wind Speed Gust Speed Precip Events Conditions
12:56 AM 32.0 °F - 19.8 °F 61% 30.38 in 10.0 mi Calm Calm - N/A   Clear
1:56 AM 32.5 °F 28.1 °F 19.8 °F 59% 30.37 in 10.0 mi NE 4.6 mph - N/A   Scattered Clouds
2:56 AM 32.2 °F 27.7 °F 19.4 °F 59% 30.36 in 10.0 mi NE 4.6 mph - N/A   Mostly Cloudy
3:56 AM 31.3 °F 26.6 °F 19.8 °F 62% 30.35 in 10.0 mi NE 4.6 mph - N/A   Partly Cloudy
4:56 AM 32.4 °F 26.9 °F 19.9 °F 60% 30.37 in 10.0 mi NE 5.8 mph - N/A   Overcast
5:56 AM 33.4 °F 29.1 °F 19.8 °F 57% 30.38 in 10.0 mi NE 4.6 mph - N/A   Overcast
6:56 AM 34.0 °F 29.8 °F 20.7 °F 58% 30.39 in 10.0 mi NE 4.6 mph - N/A   Overcast
7:56 AM 34.9 °F 29.9 °F 21.6 °F 58% 30.40 in 10.0 mi NNE 5.8 mph - N/A   Overcast
8:57 AM 37.4 °F 32.8 °F 21.2 °F 52% 30.39 in 10.0 mi NNE 5.8 mph - N/A   Overcast
9:27 AM 37.4 °F 31.4 °F 21.2 °F 52% 30.40 in 10.0 mi North 8.1 mph - N/A   Overcast
9:56 AM 38.3 °F 33.2 °F 22.3 °F 53% 30.40 in 10.0 mi North 6.9 mph - N/A   Overcast
10:56 AM 39.9 °F 36.7 °F 23.2 °F 51% 30.39 in 10.0 mi North 4.6 mph - 0.00 in Rain Light Rain
11:56 AM 40.8 °F 34.1 °F 23.5 °F 50% 30.37 in 10.0 mi North 11.5 mph - 0.00 in   Overcast
12:56 PM 42.6 °F 39.9 °F 25.7 °F 51% 30.32 in 10.0 mi NNE 4.6 mph - N/A   Overcast
1:35 PM 42.8 °F 38.6 °F 30.2 °F 61% 30.32 in 2.0 mi North 6.9 mph - N/A Rain Light Rain
1:56 PM 40.5 °F 35.8 °F 35.1 °F 81% 30.32 in 3.0 mi North 6.9 mph - 0.01 in Rain Light Rain
2:00 PM 39.2 °F 35.9 °F 33.8 °F 81% 30.32 in 1.8 mi North 4.6 mph - N/A Rain Light Rain
2:06 PM 39.2 °F 37.0 °F 35.6 °F 87% 30.32 in 2.5 mi North 3.5 mph - N/A Rain Light Rain
2:19 PM 41.0 °F 38.0 °F 35.6 °F 81% 30.32 in 5.0 mi North 4.6 mph - N/A   Light Drizzle
2:56 PM 39.9 °F 33.4 °F 35.8 °F 85% 30.32 in 10.0 mi North 10.4 mph - 0.01 in   Overcast
3:56 PM 39.4 °F 33.2 °F 35.6 °F 86% 30.31 in 10.0 mi NE 9.2 mph - N/A   Overcast
4:17 PM 39.2 °F 37.0 °F 35.6 °F 87% 30.30 in 2.0 mi North 3.5 mph - N/A   Light Drizzle
4:20 PM 39.2 °F 37.0 °F 35.6 °F 87% 30.30 in 1.5 mi Variable 3.5 mph - N/A   Light Drizzle
4:26 PM 39.2 °F 37.0 °F 37.4 °F 93% 30.30 in 1.2 mi North 3.5 mph - N/A   Light Drizzle
4:41 PM 39.2 °F 35.9 °F 37.4 °F 93% 30.29 in 3.0 mi North 4.6 mph - N/A   Light Drizzle
4:56 PM 39.7 °F 36.5 °F 38.1 °F 94% 30.29 in 5.0 mi NNW 4.6 mph - 0.00 in   Light Drizzle
5:18 PM 39.2 °F 33.6 °F 39.2 °F 100% 30.28 in 7.0 mi NNE 8.1 mph - N/A   Overcast
5:56 PM 39.6 °F 34.7 °F 38.5 °F 96% 30.28 in 10.0 mi ENE 6.9 mph - N/A   Overcast
6:16 PM 39.2 °F - 39.2 °F 100% 30.29 in 7.0 mi Calm Calm - N/A   Overcast
6:56 PM 40.1 °F 36.9 °F 39.0 °F 96% 30.29 in 7.0 mi North 4.6 mph - N/A   Overcast
7:10 PM 41.0 °F 39.0 °F 39.2 °F 93% 30.29 in 7.0 mi NNE 3.5 mph - N/A   Overcast
7:26 PM 41.0 °F 38.0 °F 39.2 °F 93% 30.29 in 7.0 mi NNE 4.6 mph - N/A   Overcast
7:36 PM 41.0 °F 39.0 °F 39.2 °F 93% 30.29 in 7.0 mi North 3.5 mph - N/A   Overcast
7:56 PM 40.3 °F - 39.6 °F 97% 30.28 in 7.0 mi Calm Calm - N/A   Overcast
8:16 PM 41.0 °F 39.0 °F 39.2 °F 93% 30.30 in 7.0 mi NNW 3.5 mph - N/A   Overcast
8:46 PM 41.0 °F 38.0 °F 39.2 °F 93% 30.29 in 7.0 mi North 4.6 mph - N/A   Overcast
8:56 PM 40.5 °F 38.4 °F 39.7 °F 97% 30.29 in 7.0 mi NNE 3.5 mph - N/A   Overcast
9:16 PM 41.0 °F 36.4 °F 39.2 °F 93% 30.29 in 7.0 mi North 6.9 mph - N/A   Overcast
9:56 PM 40.6 °F 37.5 °F 39.9 °F 97% 30.30 in 7.0 mi NNW 4.6 mph - N/A   Overcast
10:56 PM 40.8 °F - 40.1 °F 97% 30.27 in 7.0 mi Calm Calm - N/A   Overcast
11:56 PM 41.5 °F 38.6 °F 40.8 °F 97% 30.25 in 10.0 mi North 4.6 mph - N/A   Overcast